User: anonymous   Login
Location: Unspecified
(0.0000°N, 0.0000°E)
Time: 10:05:18
(UTC+00:00)
Language:

SJ 16-02 - Orbit

View from above orbital plane
View from above orbital plane
View from above satellite
View from above satellite

Ground track
Ground track

The orbit data is extracted from the following two-line orbital elements,

1 41634U 16043A   24056.91191229  .00001622  00000-0  17656-3 0  9992
2 41634  74.9995  68.0413 0009654 285.5900  74.4220 14.88682767415587
Epoch (UTC): 25 February 2024 21:53:09
Eccentricity: 0.0009654
inclination: 74.9995°
perigee height: 595 km
apogee height: 609 km
right ascension of ascending node: 68.0413°
argument of perigee: 285.5900°
revolutions per day: 14.88682767
mean anomaly at epoch: 74.4220°
orbit number at epoch: 41558

The dashed part of the orbit path shows where the satellite is in the earth's shadow,  

DLR